TIME,DELAY(SENSOR),PRES,OXYGEN,RAWTEMP,T(OPTODE),TCPHASE,FLUOR,BETA(BETA700),BETA(BETA412),BETA(BETA440),CDOM,C(CSC),ED(ED412.20),ED(ED444.00),ED(ED489.60),ED(ED554.30),LU(LU412.10),LU(LU443.90),LU(LU489.70),LU(LU554.70),COMP,TILTX,TILTY,CHECK
1346469398,5810,910.8900146484375000,34.8530311584472660,557.1148071289062000,4.5752792358398440,56.2751388549804700,55,100,100,78,82,15570,0,0,0,0,2147124388,2147779099,2147571565,2147574317,2832,3,13,52253
1346472994,5813,982.4600219726562000,38.9352989196777340,562.5112304687500000,4.4080429077148440,55.6953010559082000,55,100,100,77,81,15571,0,0,0,0,2147121188,2147778413,2147571099,2147571053,1170,3,13,31504
1346476594,5812,996.0700073242188000,39.1313591003418000,564.1469116210938000,4.3573060035705570,55.6865196228027340,55,100,101,78,82,15564,0,0,0,0,2147122112,2147775341,2147570249,2147570550,14,3,13,12065
1346480194,5810,1003.0700073242188000,38.7162818908691400,564.0421752929688000,4.3605518341064450,55.7423591613769500,55,105,100,78,82,15568,0,0,0,0,2147124050,2147769920,2147573046,2147570907,3441,3,13,37106
1346483794,5806,1014.5700073242188000,38.3833007812500000,563.0917968750000000,4.3900361061096190,55.7881202697753900,55,99,101,78,83,15567,0,0,0,0,2147123419,2147771730,2147574573,2147571446,207,3,13,26720
1346487394,5811,1013.1400146484375000,37.9152297973632800,562.9072875976562000,4.3957581520080570,55.8542709350585940,55,100,101,79,83,15566,0,0,0,0,2147125357,2147773211,2147572672,2147574564,59,3,13,42817
1346490994,5807,1009.4199829101562000,38.4828681945800800,564.0416259765625000,4.3605728149414060,55.7839698791503900,56,99,101,78,84,15567,0,0,0,0,2147123044,2147775433,2147575670,2147571840,3590,3,13,51935
1346494594,5813,1009.9099731445312000,38.1841392517089840,564.8167724609375000,4.3365168571472170,55.8371086120605500,56,98,100,78,83,15567,0,0,0,0,2147121005,2147777435,2147569526,2147573385,76,3,13,29976
1346498194,5811,1009.2800292968750000,38.0535888671875000,564.9649047851562000,4.3319230079650880,55.8552398681640600,55,100,100,78,83,15566,0,0,0,0,2147125248,2147773348,2147569728,2147570304,20,3,13,8766
1346501794,5807,1010.2600097656250000,38.2073783874511700,565.3701782226562000,4.3193440437316895,55.8357315063476560,57,100,102,77,83,15566,0,0,0,0,2147122532,2147772178,2147571483,2147568548,151,3,13,24925
1346505394,5811,1011.4799804687500000,38.4562606811523440,565.0484008789062000,4.3293299674987790,55.7993507385253900,56,99,101,77,83,15564,0,0,0,0,2147123876,2147777069,2147573165,2147571099,194,3,13,48517
1346508994,5811,1009.0900268554688000,38.1131896972656250,565.3206176757812000,4.3208851814270020,55.8487205505371100,56,101,101,79,82,15566,0,0,0,0,2147120768,2147776402,2147570678,2147570962,85,3,13,3238
1346512594,5809,1013.5499877929688000,37.8783798217773440,566.0982055664062000,4.2967472076416020,55.8933906555175800,56,99,100,79,81,15564,0,0,0,0,2147119716,2147775213,2147568950,2147570834,55,3,13,30750
1346516194,5813,1018.9500122070312000,38.5748405456543000,565.4473876953125000,4.3169460296630860,55.7822189331054700,55,98,101,77,81,15567,0,0,0,0,2147121929,2147774436,2147569462,2147572763,3539,3,13,10929
1346519794,5807,1019.3800048828125000,37.8645095825195300,565.2224121093750000,4.3239312171936035,55.8848381042480500,55,101,100,77,83,15564,0,0,0,0,2147123776,2147772900,2147567067,2147573915,170,3,13,43663
1346523394,5811,1019.0000000000000000,38.4504890441894500,564.8709106445312000,4.3348388671875000,55.7946205139160160,55,98,100,78,82,15550,0,0,0,0,2147124397,2147768466,2147570834,2147571154,262,3,12,28887
1346526994,5808,1017.7800292968750000,38.0015296936035160,565.1472167968750000,4.3262667655944820,55.8693809509277340,55,98,101,78,82,15563,0,0,0,0,2147122313,2147770441,2147575981,2147575771,3308,3,13,49447
1346530594,5810,1024.8800048828125000,38.4994812011718750,564.9204711914062000,4.3333020210266110,55.7899894714355500,54,100,100,78,83,15560,0,0,0,0,2147122998,2147772992,2147573376,2147573110,3312,3,13,49799
1346534194,5810,1017.1099853515625000,37.9533996582031250,565.0745239257812000,4.3285222053527830,55.8697891235351560,55,98,100,79,83,15562,0,0,0,0,2147122733,2147773961,2147568640,2147570459,3539,3,13,4889
1346537794,5811,1019.2800292968750000,37.9463081359863300,565.5947875976562000,4.3123698234558105,55.8829803466796900,55,97,100,78,83,15558,0,0,0,0,2147122642,2147773476,2147576228,2147569627,163,3,13,49045
1346541394,5807,1019.1099853515625000,37.9621391296386700,565.9506225585938000,4.3013310432434080,55.8824195861816400,54,99,100,78,82,15559,0,0,0,0,2147127104,2147774372,2147570742,2147571894,77,3,13,61860
1346544994,5811,1014.9099731445312000,37.8364105224609400,566.5142211914062000,4.2838330268859860,55.9035301208496100,56,100,101,77,82,15560,0,0,0,0,2147123017,2147772809,2147573330,2147570459,3560,3,13,29748
1346548594,5808,1016.5100097656250000,37.5098304748535160,566.6859130859375000,4.2785019874572750,55.9564094543457000,54,117,100,78,82,15560,0,0,0,0,2147124800,2147776612,2147574363,2147570358,601,3,13,11614
1346552194,5807,1022.0000000000000000,38.5501403808593750,566.0396728515625000,4.2985649108886720,55.7931900024414060,55,101,101,101,83,15560,0,0,0,0,2147125147,2147776557,2147574400,2147572352,176,3,13,14056
1346555794,5811,1020.8200073242188000,38.0087699890136700,566.0383300781250000,4.2986068725585940,55.8762893676757800,56,101,100,77,83,15560,0,0,0,0,2147122605,2147776768,2147569536,2147571108,68,3,13,3644
1346559394,5812,1026.3399658203125000,37.7663688659668000,565.4254760742188000,4.3176288604736330,55.9022293090820300,54,98,100,77,83,15553,0,0,0,0,2147122688,2147777106,2147572790,2147574180,10,3,12,14066
1346562994,5810,1020.2899780273438000,38.0829887390136700,565.3148193359375000,4.3210620880126950,55.8533782958984400,55,99,100,77,84,15557,0,0,0,0,2147123648,2147772845,2147574774,2147572918,283,3,13,27749
1346566594,5809,1022.4400024414062000,37.7109107971191400,565.7307739257812000,4.3081488609313965,55.9164505004882800,55,100,101,79,83,15554,0,0,0,0,2147122779,2147772580,2147575542,2147572013,3166,3,13,38494
1346570194,5811,1024.8199462890625000,37.7296981811523440,565.7592773437500000,4.3072681427001950,55.9138984680175800,54,99,101,78,82,15556,0,0,0,0,2147122331,2147774555,2147569682,2147570825,132,3,13,29103
1346573794,5811,1022.4500122070312000,37.3609085083007800,566.0490722656250000,4.2982687950134280,55.9740409851074200,54,96,101,77,84,15558,0,0,0,0,2147125833,2147774116,2147571392,2147572726,3480,3,13,47960
1346577394,5810,1029.3299560546875000,38.2080802917480500,565.7354736328125000,4.3080058097839355,55.8443107604980500,54,100,101,77,82,15557,0,0,0,0,2147123501,2147773421,2147571181,2147572608,122,3,13,19198
1346580994,5809,1022.9600219726562000,37.2239608764648440,565.8967895507812000,4.3029990196228030,55.9967918395996100,55,98,101,77,83,15558,0,0,0,0,2147122733,2147772342,2147573275,2147572580,264,3,13,25760
1346584594,5812,1024.7600097656250000,37.7852516174316400,565.9121704101562000,4.3025188446044920,55.9084815979003900,54,97,100,78,83,15557,0,0,0,0,2147124214,2147774701,2147571803,2147571593,68,3,12,19694
1346588194,5808,1026.1600341796875000,37.2184982299804700,565.7260131835938000,4.3083019256591800,55.9909400939941400,55,99,100,77,83,15555,0,0,0,0,2147123830,2147775899,2147573001,2147571885,2600,3,13,53106
1346591794,5809,1024.9599609375000000,37.8859405517578100,566.2456054687500000,4.2921710014343260,55.8952713012695300,55,98,101,79,82,15556,0,0,0,0,2147123318,2147772653,2147571218,2147569234,3460,3,13,1507
1346595394,5808,1022.2800292968750000,38.0373115539550800,566.9027709960938000,4.2717690467834470,55.8774604797363300,55,97,101,77,84,15556,0,0,0,0,2147121773,2147773257,2147570742,2147570532,225,3,13,63243
1346598994,5809,1027.7199707031250000,38.2142105102539060,566.6292724609375000,4.2802581787109375,55.8456993103027340,55,99,101,79,82,15552,0,0,0,0,2147123428,2147771675,2147571949,2147572196,233,3,13,3738
1346602594,5808,1027.7399902343750000,38.0236511230468750,566.0872802734375000,4.2970829010009770,55.8721008300781250,56,101,101,78,83,15553,0,0,0,0,2147123501,2147773961,2147575780,2147568603,3580,3,13,47444
1346606194,5813,1031.8499755859375000,37.9047203063964840,565.7772827148438000,4.3067088127136230,55.8845710754394500,56,98,102,78,83,15555,0,0,0,0,2147122998,2147773220,2147572077,2147572955,49,3,13,65057
1346609794,5810,1029.7600097656250000,37.2212486267089840,566.3811035156250000,4.2879638671875000,55.9971885681152340,54,98,102,78,83,15554,0,0,0,0,2147123894,2147779922,2147575058,2147575716,3541,3,13,16500
1346613394,5811,1024.7299804687500000,37.4720382690429700,566.3848266601562000,4.2878489494323730,55.9569511413574200,55,98,99,79,82,15556,0,0,0,0,2147124425,2147773988,2147577398,2147573988,53,3,12,37568
1346613955,5811,1022.5100097656250000,37.6461486816406250,566.4957885742188000,4.2844052314758300,55.9382514953613300,55,99,99,78,83,15550,0,0,0,0,2147125568,2147774976,2147570404,2147569142,18,3,13,44292
